Date,TemperatureHighF,TemperatureAvgF,TemperatureLowF,DewpointHighF,DewpointAvgF,DewpointLowF,HumidityHigh,HumidityAvg,HumidityLow,PressureMaxIn,PressureMinIn,WindSpeedMaxMPH,WindSpeedAvgMPH,GustSpeedMaxMPH,PrecipitationSumIn
2014-1-1,30.4,23.2,16.9,18.5,11.3,5.6,81,61,45,30.40,30.24,3,0,7,0.00
2014-1-2,22.2,12.4,3.2,17.5,8.0,-1.8,86,82,79,30.29,29.80,5,2,14,0.00
2014-1-3,9.2,2.2,-7.9,2.6,-3.7,-14.3,79,76,72,30.48,29.77,9,3,19,0.00
2014-1-4,22.5,6.7,-9.8,11.4,-1.6,-16.1,78,69,56,30.53,30.32,3,0,12,0.01
2014-1-5,46.4,27.0,7.0,46.1,22.5,2.9,100,83,66,30.32,29.74,3,0,12,0.07
2014-1-6,55.3,41.7,20.8,55.3,37.2,7.9,100,86,46,29.73,29.34,9,2,16,0.41
2014-1-7,20.6,7.2,3.0,10.2,-10.7,-15.4,65,43,31,30.33,29.65,4,1,13,0.00
2014-1-8,19.5,11.4,3.7,3.2,-2.9,-9.4,64,53,41,30.52,30.33,1,0,6,0.00
2014-1-9,29.4,20.0,11.2,11.0,8.3,3.3,76,62,40,30.66,30.57,2,0,9,0.00
2014-1-10,32.7,27.4,15.7,29.6,22.4,9.2,90,81,65,30.59,30.21,1,0,2,0.07
2014-1-11,58.0,48.2,32.2,57.2,46.8,29.6,99,95,89,30.21,29.24,6,2,12,0.42
2014-1-12,51.3,41.3,30.9,48.6,29.1,22.1,91,62,47,30.04,29.34,4,1,11,0.00
2014-1-13,46.8,38.6,27.8,35.4,29.7,23.4,87,71,53,30.12,29.85,4,1,10,0.00
2014-1-14,46.2,43.4,35.9,42.9,39.4,33.9,96,86,64,29.86,29.66,2,0,8,0.50
2014-1-15,47.1,37.4,27.3,41.9,32.6,26.1,98,84,56,29.98,29.82,5,0,9,0.01
2014-1-16,33.2,31.7,29.3,28.2,26.0,24.2,87,79,75,29.96,29.86,4,1,7,0.01
2014-1-17,42.3,30.3,20.8,29.3,23.2,18.1,94,76,49,29.97,29.89,3,0,10,0.00
2014-1-18,34.6,29.7,22.1,32.0,25.2,15.1,90,84,65,29.89,29.66,3,0,8,0.05
2014-1-19,32.1,26.7,19.5,22.1,18.1,14.9,86,70,59,29.81,29.60,2,0,9,0.01
2014-1-20,39.9,34.6,26.0,28.7,21.4,8.0,73,59,43,29.90,29.55,6,1,12,0.02
2014-1-21,26.0,13.6,6.9,10.0,1.5,-7.3,78,59,40,30.06,29.90,7,3,19,0.00
2014-1-22,11.6,4.8,-1.8,-6.4,-9.4,-13.5,62,52,40,29.99,29.83,10,4,20,0.00
2014-1-23,19.2,12.0,0.1,0.1,-2.4,-6.2,76,53,37,30.25,30.09,2,0,7,0.00
2014-1-24,19.9,11.6,0.9,-1.0,-4.5,-7.6,73,49,31,30.36,30.04,3,0,7,0.00
2014-1-25,22.4,19.0,14.0,17.8,8.4,-3.2,86,65,45,30.04,29.42,4,1,14,0.00
2014-1-26,23.8,16.4,9.2,12.7,4.1,-3.2,85,59,34,29.88,29.43,3,0,8,0.04
2014-1-27,40.2,26.6,15.6,25.3,10.0,-9.1,71,52,25,30.08,29.57,4,1,11,0.03
2014-1-28,18.9,12.8,5.8,-2.9,-8.5,-11.8,52,38,26,30.37,30.08,2,0,8,0.00
2014-1-29,24.8,16.0,6.3,3.4,-4.4,-10.0,68,42,24,30.25,30.05,2,0,7,0.00
2014-1-30,29.3,20.2,2.4,8.6,1.6,-6.2,73,46,29,30.46,30.17,3,0,6,0.00
2014-1-31,39.3,29.4,19.2,20.1,11.8,5.3,64,48,32,30.22,30.07,2,0,5,0.00
2014-2-1,45.7,35.4,25.7,30.7,22.6,18.7,79,61,42,30.34,30.01,4,1,9,0.00
2014-2-2,47.9,38.2,29.5,39.5,32.8,26.7,94,82,56,30.10,29.89,2,0,5,0.08
2014-2-3,35.0,28.3,17.5,28.8,22.8,11.0,90,80,63,30.32,30.09,4,1,10,0.00
2014-2-4,33.8,21.0,6.0,19.7,13.1,1.9,89,72,52,30.49,30.27,3,0,9,0.16
2014-2-5,28.4,25.8,23.8,25.6,22.5,19.2,91,87,77,30.28,29.67,3,0,7,0.00
2014-2-6,28.2,18.3,7.7,11.3,7.5,1.9,82,63,45,30.31,30.23,3,0,8,0.11
2014-2-7,34.6,17.1,0.7,16.9,4.8,-4.3,88,61,33,30.31,30.18,1,0,7,0.04
2014-2-8,29.0,17.5,2.6,5.7,1.3,-6.6,71,50,27,30.35,30.15,2,0,7,0.01
2014-2-9,30.6,19.8,5.0,18.9,8.8,-3.4,86,64,41,30.21,29.97,2,0,7,0.01
2014-2-10,29.3,16.8,4.1,17.8,5.7,-3.7,88,65,36,30.27,29.96,5,1,10,0.00
2014-2-11,25.7,10.5,-4.3,8.0,-1.9,-10.0,82,59,36,30.49,30.26,4,0,9,0.00
2014-2-12,25.3,10.2,-5.4,5.2,-3.0,-11.3,81,57,31,30.59,30.37,3,0,7,0.00
2014-2-13,27.8,24.6,19.4,26.4,22.4,15.9,95,91,86,30.13,29.09,6,3,13,0.00
2014-2-14,38.5,31.9,27.3,37.0,27.4,21.6,96,85,60,29.77,29.01,8,1,15,0.18
2014-2-15,34.6,28.0,22.2,27.5,21.7,12.8,90,77,59,29.79,29.65,7,1,15,0.03
2014-2-16,30.9,23.3,13.8,17.7,9.8,4.3,82,57,36,30.08,29.72,6,1,11,0.05
2014-2-17,31.5,17.0,1.1,5.8,-1.9,-6.9,73,46,23,30.40,30.08,5,0,8,0.04
2014-2-18,33.1,23.7,10.9,27.0,15.6,-0.6,85,72,40,30.33,29.94,1,0,5,0.06
2014-2-19,36.5,26.4,14.0,33.8,22.9,10.7,94,87,66,30.10,29.69,3,0,6,0.08
2014-2-20,52.6,40.4,22.4,32.7,26.5,15.6,92,62,27,30.23,30.04,2,0,4,0.09
2014-2-21,43.8,37.1,30.6,42.3,35.4,29.3,95,94,90,30.03,29.60,2,0,6,0.24
2014-2-22,52.8,39.3,26.3,37.2,24.2,18.7,97,62,27,30.00,29.88,3,0,11,0.00
2014-2-23,49.1,37.4,26.1,28.4,25.1,20.1,82,63,41,30.00,29.78,1,0,6,0.00
2014-2-24,37.3,29.5,20.2,28.5,12.2,4.2,76,49,27,30.05,29.78,4,1,16,0.00
2014-2-25,32.4,21.6,11.7,16.0,6.6,1.1,69,53,39,30.06,29.91,2,0,6,0.00
2014-2-26,32.2,17.1,6.3,12.1,0.7,-9.5,79,52,25,29.96,29.83,4,0,12,0.00
2014-2-27,32.7,15.2,1.1,12.2,-2.4,-18.1,72,48,24,30.05,29.60,5,1,20,0.00
2014-2-28,23.8,11.5,0.3,-2.9,-8.4,-14.9,62,41,25,30.43,30.06,3,0,7,0.00
2014-3-1,35.8,20.6,1.3,13.8,4.7,-6.4,76,52,33,30.43,30.12,3,0,10,0.00
2014-3-2,35.0,30.2,22.5,20.1,15.2,9.9,63,53,48,30.12,30.00,4,1,11,0.00
2014-3-3,22.4,16.0,7.9,9.8,-3.1,-12.4,59,43,28,30.35,30.06,5,2,13,0.00
2014-3-4,28.2,16.4,-0.4,9.9,-0.2,-9.2,72,49,28,30.43,30.24,2,0,6,0.00
2014-3-5,30.0,23.7,18.6,11.6,7.9,4.1,66,51,37,30.49,30.22,7,1,15,0.00
2014-3-6,29.7,19.7,6.3,3.6,-2.6,-7.1,62,39,23,30.67,30.50,5,1,12,0.00
2014-3-7,39.2,24.6,6.5,25.1,13.2,-1.5,76,63,45,30.50,29.94,1,0,5,0.00
2014-3-8,53.3,38.9,25.1,28.1,24.9,19.3,85,59,36,29.94,29.76,3,0,7,0.00
2014-3-9,41.8,34.9,26.7,26.8,15.6,7.4,71,46,29,30.01,29.88,5,1,13,0.00
2014-3-10,48.8,38.4,29.1,28.9,22.7,12.5,68,54,40,29.91,29.56,2,0,6,0.00
2014-3-11,62.7,47.2,33.7,35.2,28.8,23.5,81,53,25,29.69,29.51,2,0,10,0.00
2014-3-12,49.8,38.5,27.8,34.4,31.0,25.5,93,75,53,29.69,29.05,7,1,16,0.24
2014-3-13,24.8,19.7,14.4,5.3,-1.1,-9.1,57,41,23,30.07,29.45,10,4,25,0.00
2014-3-14,41.3,27.8,14.0,25.0,9.5,-0.3,62,47,29,30.20,29.88,6,1,17,0.00
2014-3-15,55.6,44.8,36.6,31.7,26.1,17.6,64,49,30,29.99,29.72,5,1,20,0.00
2014-3-16,36.9,29.6,22.2,17.5,6.1,-1.4,53,37,24,30.21,29.98,7,2,19,0.00
2014-3-17,30.7,21.9,15.2,4.0,-1.0,-6.9,54,38,19,30.18,30.05,5,2,15,0.00
2014-3-18,43.8,26.8,10.5,12.2,4.8,-1.9,79,45,15,30.31,30.15,2,0,7,0.00
2014-3-19,43.8,32.1,19.5,33.7,23.3,12.7,92,71,49,30.33,29.90,4,0,17,0.35
2014-3-20,51.3,41.9,34.3,37.4,27.2,21.0,97,59,39,29.85,29.70,4,1,15,0.10
2014-3-21,46.1,38.5,28.5,22.5,19.2,15.9,68,47,30,30.06,29.85,4,1,16,0.00
2014-3-22,59.2,40.3,25.0,36.6,25.0,18.3,82,57,28,30.06,29.73,8,1,18,0.00
2014-3-23,37.6,31.4,22.4,25.8,14.9,2.2,81,53,27,30.15,29.97,5,2,14,0.00
2014-3-24,32.4,23.9,15.7,7.2,3.6,0.1,63,43,27,30.23,30.08,4,1,14,0.00
2014-3-25,38.0,27.2,12.8,15.0,9.6,5.4,79,50,29,30.17,29.87,4,0,13,0.00
2014-3-26,34.9,29.5,22.5,17.3,7.2,-5.2,61,41,21,30.14,29.76,10,4,26,0.00
2014-3-27,42.6,34.4,14.8,21.6,9.5,4.3,73,38,21,30.41,30.22,3,1,16,0.00
2014-3-28,47.6,41.2,35.2,46.2,33.7,17.8,96,76,45,30.22,29.95,3,0,9,0.18
2014-3-29,48.3,43.1,35.3,44.4,40.4,34.3,97,90,71,30.21,29.76,3,0,9,0.86
2014-3-30,43.2,40.1,36.2,41.6,38.1,31.2,96,93,81,29.76,29.57,10,4,24,0.32
2014-3-31,51.1,38.7,32.9,33.3,29.4,24.9,89,70,48,30.08,29.73,11,6,31,0.06
2014-4-1,56.6,44.1,32.8,34.4,28.0,24.2,73,55,34,30.14,29.96,5,1,16,0.00
2014-4-2,61.5,46.6,36.8,38.7,34.6,31.1,87,65,35,30.11,29.99,2,0,10,0.00
2014-4-3,59.6,45.8,29.7,33.5,25.3,16.3,84,51,20,30.15,30.01,3,1,13,0.00
2014-4-4,46.4,41.8,36.6,34.4,30.1,26.9,91,64,47,30.08,29.78,6,2,21,0.08
2014-4-5,51.6,41.8,32.7,43.0,30.1,19.6,96,67,38,30.04,29.73,6,1,18,0.00
2014-4-6,58.7,41.3,23.9,25.9,20.6,15.6,86,49,19,30.19,30.04,3,0,10,0.00
2014-4-7,53.2,43.5,31.6,44.9,27.9,14.7,94,59,22,30.19,29.69,6,1,18,0.09
2014-4-8,67.8,52.8,44.5,57.6,43.7,31.4,97,74,44,29.69,29.32,5,1,26,0.08
2014-4-9,58.9,45.9,31.2,38.2,25.0,8.7,93,50,20,29.99,29.60,8,2,19,0.00
2014-4-10,65.0,53.3,25.8,35.8,27.0,18.5,77,39,25,30.17,29.96,9,3,18,0.00
2014-4-11,71.1,56.6,47.0,53.3,41.2,31.5,92,59,35,30.04,29.90,5,1,13,0.14
2014-4-12,71.6,55.7,40.9,51.0,39.1,28.9,98,62,21,30.22,30.00,4,0,12,0.00
2014-4-13,78.8,62.0,47.7,54.3,45.8,32.3,83,57,38,30.17,29.91,6,2,16,0.04
2014-4-14,78.5,67.7,59.3,56.7,53.8,51.5,83,62,40,29.96,29.78,8,3,21,0.00
2014-4-15,64.0,55.3,32.4,60.4,51.9,30.9,95,89,71,29.91,29.48,9,3,22,1.40
2014-4-16,42.6,34.0,25.4,30.8,21.3,11.4,95,64,28,30.58,29.91,5,1,16,0.12
2014-4-17,51.9,38.4,23.2,26.6,19.1,14.5,83,50,26,30.74,30.58,3,1,13,0.00
2014-4-18,49.9,43.3,27.0,30.0,27.6,23.1,87,55,37,30.56,30.23,2,0,10,0.00
2014-4-19,62.1,49.1,34.7,35.4,27.3,18.8,83,48,20,30.37,30.19,8,2,19,0.00
2014-4-20,63.9,48.2,30.7,30.0,24.0,17.9,83,43,19,30.49,30.31,3,1,10,0.00
2014-4-21,73.2,52.4,30.7,38.2,24.9,12.9,88,43,13,30.31,29.83,3,0,12,0.00
2014-4-22,73.0,57.6,44.3,50.8,44.1,38.1,85,63,35,29.83,29.47,4,0,14,0.00
2014-4-23,55.0,48.6,44.2,50.9,39.4,24.5,92,72,45,29.80,29.47,9,3,23,0.23
2014-4-24,58.9,47.4,33.5,26.8,17.7,9.0,61,34,15,30.02,29.80,11,3,25,0.00
2014-4-25,68.1,48.9,30.1,28.7,23.3,16.5,78,42,17,30.05,29.79,4,1,12,0.00
2014-4-26,63.9,52.1,42.5,48.9,44.3,38.9,96,78,40,29.86,29.68,4,0,10,0.69
2014-4-27,55.0,46.9,38.2,42.8,36.3,32.8,91,68,45,30.13,29.85,8,2,18,0.00
2014-4-28,62.3,50.8,34.3,38.6,33.8,29.1,91,55,30,30.13,30.00,8,2,19,0.00
2014-4-29,51.1,46.2,40.9,38.7,36.9,34.6,89,70,54,30.43,30.13,4,1,13,0.14
2014-4-30,49.6,43.0,39.5,48.5,40.7,36.3,96,92,87,30.44,29.99,3,1,11,1.48
2014-5-1,76.0,60.7,49.8,60.1,52.9,48.2,98,79,42,29.99,29.62,2,0,11,0.17
2014-5-2,69.6,60.2,44.3,50.2,39.6,34.1,96,50,30,29.81,29.69,2,0,12,0.00
2014-5-3,69.6,55.7,40.6,48.2,40.3,35.1,87,59,31,29.86,29.70,2,0,10,0.02
2014-5-4,67.1,55.6,46.7,48.0,36.3,21.6,92,54,21,29.74,29.58,8,2,28,0.02
2014-5-5,66.8,57.7,46.5,40.2,34.1,29.7,65,42,27,29.88,29.74,6,2,19,0.00
2014-5-6,65.8,53.1,40.8,39.0,32.4,24.6,82,49,23,30.07,29.87,8,1,21,0.00
2014-5-7,67.6,53.9,35.2,36.7,30.6,23.3,86,45,20,30.24,30.07,3,0,11,0.00
2014-5-8,61.5,54.4,48.0,53.8,47.9,36.5,93,79,61,30.17,30.07,1,0,3,0.04
2014-5-9,61.6,59.5,54.1,59.4,57.7,53.3,98,94,87,30.18,29.99,1,0,7,0.30
2014-5-10,84.0,67.0,60.4,65.7,61.1,54.9,97,84,44,29.99,29.75,5,0,17,0.32
2014-5-11,81.4,66.5,49.9,59.9,45.4,31.0,96,56,18,30.04,29.82,3,0,13,0.03
2014-5-12,85.9,66.2,45.8,59.0,47.8,37.9,89,57,20,30.10,29.99,1,0,7,0.00
2014-5-13,74.4,63.8,55.0,58.3,46.5,37.1,85,56,35,30.25,29.99,2,0,10,0.00
2014-5-14,74.2,61.4,48.5,58.5,48.7,42.0,84,65,43,30.29,30.17,2,0,10,0.00
2014-5-15,71.5,67.4,61.8,67.9,64.3,60.6,96,90,79,30.19,30.06,3,1,12,0.07
2014-5-16,69.9,67.3,59.2,65.5,64.1,57.2,96,89,81,30.06,29.75,5,2,17,1.10
2014-5-17,69.6,58.9,48.8,56.6,46.2,37.4,96,67,32,30.11,29.80,3,0,12,0.05
2014-5-18,65.8,53.4,39.1,41.2,36.3,31.9,92,55,30,30.19,30.10,6,1,14,0.00
2014-5-19,70.8,54.2,35.3,43.1,36.5,30.3,94,57,23,30.20,30.04,8,2,24,0.00
2014-5-20,77.6,59.8,40.3,50.3,41.1,31.1,96,58,19,30.13,29.94,6,1,15,0.00
2014-5-21,78.1,64.0,52.9,55.9,50.1,40.1,86,64,29,29.97,29.86,1,0,6,0.00
2014-5-22,63.4,58.8,54.7,61.2,56.9,53.6,97,94,84,29.85,29.77,3,0,9,0.51
2014-5-23,65.8,59.9,55.9,60.4,56.3,51.6,98,88,72,29.93,29.82,2,0,6,0.00
2014-5-24,68.1,59.5,51.1,57.1,52.6,48.3,90,79,56,30.06,29.91,3,0,11,0.00
2014-5-25,80.5,63.5,47.6,57.4,50.0,43.1,98,68,27,30.08,29.98,2,0,7,0.01
2014-5-26,87.2,69.9,52.6,59.7,53.6,49.3,92,61,29,30.02,29.83,1,0,10,0.01
2014-5-27,89.0,74.0,57.3,64.2,58.7,53.5,91,62,35,29.86,29.69,1,0,10,0.00
2014-5-28,70.6,56.5,51.7,63.6,51.3,44.7,92,83,74,30.16,29.76,2,1,11,0.02
2014-5-29,71.1,61.1,43.3,51.5,44.6,39.4,93,57,38,30.22,30.09,1,0,7,0.00
2014-5-30,75.8,61.1,50.8,56.2,48.7,44.3,89,67,33,30.13,29.97,5,1,18,0.02
2014-5-31,69.3,58.1,43.5,53.3,47.6,41.6,97,71,45,30.27,30.07,8,2,19,0.00
2014-6-1,78.6,63.3,45.8,54.1,44.7,32.4,96,57,21,30.35,30.20,2,0,6,0.00
2014-6-2,84.3,67.2,46.2,59.4,51.8,40.8,92,60,37,30.23,29.96,1,0,10,0.00
2014-6-3,90.3,70.7,56.7,69.1,62.2,54.1,96,77,42,29.99,29.78,3,0,7,0.22
2014-6-4,80.1,68.9,59.3,63.9,57.8,49.2,98,72,40,29.84,29.72,3,0,13,0.14
2014-6-5,73.2,65.0,59.6,61.8,57.2,46.2,97,78,55,29.78,29.63,4,1,11,0.29
2014-6-6,75.4,64.0,53.2,54.8,50.4,45.6,85,63,42,29.93,29.77,4,1,11,0.00
2014-6-7,81.8,65.6,47.4,58.4,53.2,45.5,97,68,37,30.00,29.88,3,0,10,0.00
2014-6-8,86.1,69.8,51.6,62.1,55.6,49.6,97,65,32,29.95,29.82,2,0,10,0.00
2014-6-9,66.9,64.3,62.3,63.7,60.0,54.7,96,86,65,29.96,29.86,1,0,3,0.15
2014-6-10,79.6,69.3,62.3,68.6,64.4,60.8,97,86,64,29.97,29.91,1,0,4,0.00
2014-6-11,68.9,63.5,60.9,67.1,57.6,49.1,94,82,62,30.12,29.97,2,0,10,0.15
2014-6-12,67.6,63.0,58.7,65.5,59.3,52.5,94,88,74,30.09,29.94,1,0,5,0.01
2014-6-13,79.0,69.5,65.6,70.9,66.8,64.4,97,91,73,29.83,29.70,1,0,6,0.71
2014-6-14,71.1,64.4,53.1,65.2,57.0,47.7,98,79,53,30.00,29.75,4,1,14,0.01
2014-6-15,76.8,63.0,47.6,57.9,52.7,45.5,97,72,47,30.10,29.99,6,1,16,0.00
2014-6-16,85.5,68.9,51.0,62.2,55.5,49.3,97,67,32,30.16,29.99,2,0,6,0.00
2014-6-17,89.9,76.0,61.2,71.7,63.4,56.1,92,67,41,30.04,29.80,1,0,6,0.00
2014-6-18,84.3,77.6,67.1,67.2,63.3,59.6,90,63,44,29.95,29.76,6,1,16,0.00
2014-6-19,82.2,74.5,57.8,68.4,60.7,53.4,97,65,40,29.99,29.92,3,0,12,0.18
2014-6-20,78.1,64.6,48.6,57.2,48.8,43.1,97,61,30,30.01,29.88,3,1,11,0.00
2014-6-21,77.9,65.2,47.7,55.4,48.9,43.2,94,59,31,29.99,29.86,3,0,11,0.00
2014-6-22,81.8,67.1,51.7,58.5,51.3,42.3,95,62,27,30.00,29.90,2,0,9,0.00
2014-6-23,85.3,69.1,51.6,61.9,54.8,49.4,97,65,31,30.10,30.00,1,0,7,0.00
2014-6-24,81.8,71.3,60.5,63.3,57.8,54.0,88,64,45,30.12,29.96,2,0,9,0.00
2014-6-25,87.0,73.8,62.3,72.2,65.4,57.1,92,76,58,29.98,29.78,5,0,13,0.29
2014-6-26,83.4,74.7,68.8,71.5,66.6,60.4,98,78,55,29.92,29.77,5,1,18,0.03
2014-6-27,82.8,75.5,63.5,65.3,56.4,44.9,94,55,27,30.19,30.06,4,1,11,0.00
2014-6-28,88.4,72.6,55.1,63.2,57.1,48.3,97,63,27,30.26,30.18,2,0,6,0.00
2014-6-29,88.6,73.2,57.2,65.5,59.2,54.6,96,65,35,30.23,30.07,1,0,7,0.00
2014-6-30,87.0,73.5,58.4,66.9,61.0,54.4,91,66,47,30.08,29.90,2,0,11,0.00
2014-7-1,89.7,78.4,65.6,72.6,68.0,61.6,96,72,52,29.92,29.76,2,0,13,0.00
2014-7-2,91.6,78.0,70.8,75.6,70.8,67.9,98,80,56,29.90,29.77,6,0,17,2.47
2014-7-3,88.2,76.9,67.1,77.8,71.7,65.9,99,85,60,29.99,29.82,5,0,17,0.94
2014-7-4,67.8,65.5,58.3,67.2,63.9,56.0,98,95,85,29.99,29.89,4,1,9,0.38
2014-7-5,82.6,68.5,54.4,57.8,51.3,41.1,93,59,29,30.10,29.97,5,1,16,0.00
2014-7-6,84.7,70.7,54.2,62.2,55.8,51.5,95,63,36,30.06,29.87,2,0,12,0.00
2014-7-7,88.8,76.3,68.3,69.8,64.9,57.6,96,69,47,29.88,29.67,3,0,10,0.22
2014-7-8,89.5,76.9,65.2,74.8,68.7,64.0,98,78,50,29.80,29.60,3,0,10,0.14
2014-7-9,86.3,75.7,67.1,71.7,66.5,61.6,98,76,46,29.92,29.71,2,0,18,0.01
2014-7-10,81.6,73.7,63.2,64.2,59.5,55.4,96,63,42,30.13,30.05,3,1,11,0.00
2014-7-11,85.3,71.2,58.6,61.9,56.9,49.4,92,65,31,30.22,30.12,2,0,11,0.00
2014-7-12,87.8,73.6,58.9,68.9,61.6,57.2,97,69,41,30.20,30.08,1,0,6,0.00
2014-7-13,82.6,74.0,67.9,72.1,66.7,59.6,96,78,67,30.08,29.82,1,0,7,0.50
2014-7-14,82.0,73.9,68.9,73.0,70.5,67.7,98,90,70,29.90,29.80,1,0,4,0.16
2014-7-15,84.1,75.6,71.5,74.9,71.7,69.1,98,88,66,29.80,29.68,1,0,4,0.18
2014-7-16,81.4,70.4,61.2,70.9,63.9,58.3,98,82,49,29.87,29.70,5,0,12,1.32
2014-7-17,80.7,68.5,55.4,62.7,58.4,53.7,97,73,46,30.07,29.88,3,0,10,0.00
2014-7-18,82.8,70.8,51.9,61.8,56.8,48.1,98,65,31,30.23,30.17,3,0,10,0.00
2014-7-19,77.9,66.8,57.8,63.7,59.2,56.1,97,78,50,30.25,30.16,1,0,4,0.00
2014-7-20,81.2,68.7,58.9,63.2,59.3,55.9,96,75,45,30.17,30.08,2,0,8,0.03
2014-7-21,86.5,71.4,56.0,68.2,61.2,54.5,97,73,40,30.19,30.10,1,0,6,0.00
2014-7-22,89.0,76.0,62.3,71.7,66.5,60.5,97,74,51,30.14,29.98,1,0,6,0.00
2014-7-23,90.7,78.8,67.8,76.0,70.1,66.0,96,76,56,29.98,29.71,6,0,16,0.15
2014-7-24,77.7,71.3,60.9,63.6,59.0,54.2,92,67,45,29.91,29.82,5,2,17,0.00
2014-7-25,81.2,66.9,52.8,62.3,56.0,50.0,96,71,39,30.03,29.91,2,0,7,0.00
2014-7-26,79.9,68.5,57.2,65.5,60.5,55.8,97,78,54,29.97,29.86,1,0,6,0.00
2014-7-27,85.3,73.9,65.2,74.2,68.3,63.1,97,84,61,29.86,29.61,1,0,7,0.34
2014-7-28,82.8,72.7,66.1,71.5,65.8,56.7,96,80,56,29.65,29.44,2,0,14,0.11
2014-7-29,75.4,67.2,57.8,58.6,55.3,50.2,91,67,44,29.94,29.65,2,0,10,0.00
2014-7-30,78.8,67.0,58.1,61.2,56.7,50.1,96,73,39,30.02,29.94,1,0,5,0.00
2014-7-31,81.6,67.6,55.1,65.9,59.6,53.4,97,78,49,30.10,30.01,1,0,12,0.02
2014-8-1,86.5,73.1,64.5,71.0,66.8,60.9,98,82,50,30.19,30.12,7,0,16,0.30
2014-8-2,76.8,69.1,63.1,66.7,63.0,57.9,98,82,55,30.18,30.07,3,0,10,0.01
2014-8-3,80.1,69.2,61.0,68.9,62.8,59.3,97,82,51,30.11,30.00,1,0,5,0.09
2014-8-4,85.5,73.1,62.0,69.4,64.4,60.1,97,77,48,30.03,29.97,1,0,6,0.00
2014-8-5,89.3,74.2,59.8,68.8,63.4,58.2,98,73,38,30.03,29.87,6,0,19,0.03
2014-8-6,81.1,69.5,63.5,67.7,63.7,59.9,97,84,49,29.92,29.80,5,0,11,0.27
2014-8-7,79.8,69.0,54.1,64.5,55.7,49.4,98,65,39,30.00,29.88,4,1,13,0.00
2014-8-8,81.1,65.4,50.8,61.6,55.6,49.1,98,74,41,30.08,30.00,3,0,10,0.00
2014-8-9,82.6,54.1,54.8,62.1,43.6,51.0,96,51,35,30.12,30.04,2,0,9,0.00
2014-8-10,87.2,48.9,57.6,65.1,38.6,52.6,93,40,32,30.15,30.06,1,0,10,0.00
2014-8-11,87.4,56.6,56.9,66.5,44.8,54.6,97,46,35,30.12,30.05,1,0,7,0.00
2014-8-12,78.1,33.2,64.5,68.4,29.8,61.8,98,35,59,30.07,29.86,3,0,11,0.00
2014-8-13,75.4,37.7,65.6,70.2,34.9,61.6,97,44,73,29.86,29.62,5,0,13,0.01
2014-8-14,76.8,63.2,55.4,57.6,49.4,47.1,90,56,36,29.87,29.78,3,0,15,0.04
2014-8-15,69.1,43.4,53.9,58.1,36.3,50.6,97,47,54,29.95,29.85,2,0,6,0.00
2014-8-16,76.3,46.2,51.9,58.1,37.7,50.2,96,45,41,29.99,29.88,1,0,9,0.00
2014-8-17,80.3,48.4,59.5,62.5,39.3,54.2,88,44,43,29.88,29.78,4,0,12,0.00
2014-8-18,78.5,47.7,50.2,61.0,38.4,48.8,98,45,40,29.90,29.79,4,0,11,0.00
2014-8-19,80.7,50.2,48.9,60.1,39.3,47.8,98,44,36,29.92,29.84,1,0,5,0.00
2014-8-20,84.9,51.5,64.7,67.9,43.2,61.6,97,44,51,29.98,29.91,1,0,6,0.00
2014-8-21,78.3,71.8,63.7,67.5,64.5,61.7,96,79,62,30.04,29.97,1,0,7,0.12
2014-8-22,73.2,68.1,65.0,65.0,62.1,59.5,94,82,64,30.05,29.98,1,0,4,0.00
2014-8-23,75.4,67.4,60.2,61.8,59.8,55.6,92,78,52,30.11,30.03,1,0,7,0.00
2014-8-24,78.3,65.5,52.9,63.9,58.3,51.1,98,80,53,30.15,30.08,3,0,13,0.00
2014-8-25,86.1,68.8,53.3,66.2,59.9,51.8,98,77,41,30.18,30.09,2,0,7,0.00
2014-8-26,89.0,72.0,56.2,67.6,61.0,54.8,98,73,35,30.17,30.02,1,0,6,0.00
2014-8-27,91.0,74.9,61.3,72.9,65.6,58.6,96,76,47,30.03,29.82,1,0,4,0.05
2014-8-28,76.8,69.0,56.3,61.6,54.1,48.1,97,61,39,30.05,29.86,4,1,14,0.01
2014-8-29,77.4,62.4,47.4,58.7,52.4,45.5,98,73,41,30.22,30.04,2,0,9,0.00
2014-8-30,79.4,67.3,52.6,64.9,57.8,50.6,98,74,47,30.26,30.11,1,0,7,0.00
2014-8-31,83.4,73.3,69.8,72.9,67.3,61.6,96,82,66,30.11,29.92,2,0,15,0.35
2014-9-1,88.8,76.6,68.4,75.2,70.3,67.5,98,83,55,29.98,29.88,1,0,4,0.01
2014-9-2,91.8,79.2,68.1,75.5,69.8,66.9,98,75,50,29.90,29.72,1,0,6,0.00
2014-9-3,84.1,73.8,62.4,68.7,60.0,52.6,91,64,36,30.08,29.73,2,0,9,0.00
2014-9-4,88.0,77.9,67.4,62.9,59.8,55.3,82,56,36,30.12,30.06,1,0,7,0.00
2014-9-5,88.2,74.4,62.3,72.1,66.8,60.2,96,79,57,30.15,29.97,1,0,9,0.00
2014-9-6,92.5,76.0,61.8,76.3,69.0,57.5,98,81,49,29.97,29.77,5,0,16,0.12
2014-9-7,77.6,65.5,54.7,63.5,55.0,45.8,98,73,35,30.19,29.92,4,1,13,0.02
2014-9-8,75.8,61.9,47.1,60.2,52.1,45.5,98,73,43,30.33,30.20,2,0,10,0.00
2014-9-9,71.3,61.6,48.2,59.4,55.3,46.3,96,81,64,30.30,30.14,2,0,7,0.00
2014-9-10,78.1,64.9,50.1,60.2,55.1,47.9,97,73,44,30.14,29.98,1,0,6,0.00
2014-9-11,78.1,69.2,60.7,68.9,63.5,53.6,91,82,72,29.98,29.78,4,0,10,0.00
2014-9-12,68.8,61.3,52.9,53.9,49.5,46.9,86,66,49,30.19,29.96,6,2,13,0.00
2014-9-13,59.8,57.9,51.9,58.1,56.1,50.5,95,94,90,30.16,30.08,1,0,7,0.18
2014-9-14,66.0,53.5,41.8,50.2,44.8,40.7,98,75,42,30.28,30.16,5,1,13,0.00
2014-9-15,67.8,53.8,39.9,51.5,44.4,37.8,97,74,37,30.25,30.05,3,0,10,0.00
2014-9-16,68.3,58.4,52.3,58.1,53.3,48.9,96,84,61,30.05,29.95,1,0,6,0.14
2014-9-17,69.9,55.3,42.5,55.8,46.4,41.0,98,76,40,30.06,29.94,1,0,5,0.01
2014-9-18,74.0,62.7,41.3,54.6,48.7,39.7,98,64,36,30.12,29.97,3,0,13,0.00
2014-9-19,65.0,54.1,44.6,49.2,42.5,38.5,85,67,38,30.36,30.12,3,1,10,0.00
2014-9-20,75.1,61.1,49.8,58.4,53.4,44.8,95,77,53,30.33,30.05,2,0,10,0.00
2014-9-21,75.8,67.0,60.2,67.3,63.6,58.7,98,89,74,30.05,29.57,1,0,4,0.01
2014-9-22,69.9,60.0,43.6,63.7,49.6,38.8,96,72,43,30.13,29.59,4,0,17,0.02
2014-9-23,71.1,53.2,37.0,50.1,42.3,34.9,97,71,36,30.41,30.13,2,0,7,0.00
2014-9-24,72.8,57.3,43.5,55.8,47.5,41.9,98,74,40,30.57,30.40,2,0,10,0.00
2014-9-25,65.5,60.1,52.8,53.9,52.0,49.5,93,75,61,30.43,30.22,3,0,11,0.00
2014-9-26,76.3,61.6,46.7,56.0,51.1,44.8,97,72,40,30.23,30.14,4,1,14,0.00
2014-9-27,80.9,62.3,44.9,60.0,52.1,43.0,98,73,37,30.23,30.13,4,0,13,0.00
2014-9-28,85.1,65.2,49.2,62.4,55.8,47.5,98,75,39,30.18,29.98,1,0,6,0.00
2014-9-29,76.5,65.0,55.9,62.7,58.5,54.6,98,81,49,29.98,29.88,1,0,5,0.00
2014-9-30,73.9,63.7,55.4,61.7,58.1,52.2,96,83,59,30.00,29.89,3,0,13,0.00
2014-10-1,62.1,59.0,55.4,60.4,57.4,53.7,97,94,92,30.08,29.98,2,0,9,0.13
2014-10-2,69.1,62.4,57.3,57.9,56.0,54.4,97,81,61,30.15,30.07,4,0,11,0.01
2014-10-3,72.8,60.0,46.1,55.0,49.2,42.8,95,70,38,30.11,29.82,1,0,7,0.00
2014-10-4,63.5,58.3,48.3,62.3,55.7,46.1,96,91,81,29.83,29.46,2,0,14,0.26
2014-10-5,61.8,49.3,38.6,46.0,37.5,30.6,92,67,32,29.98,29.64,2,0,10,0.00
2014-10-6,69.3,53.6,37.5,50.4,42.6,34.6,97,70,31,30.06,29.98,5,1,13,0.00
2014-10-7,74.6,64.0,52.9,58.7,53.6,44.6,91,71,35,30.04,29.84,2,0,14,0.04
2014-10-8,73.9,63.7,57.2,59.9,50.9,38.4,96,67,36,29.89,29.71,2,0,12,0.83
2014-10-9,69.1,58.7,44.6,42.6,39.4,33.7,84,52,28,30.02,29.88,2,0,11,0.00
2014-10-10,62.4,50.0,35.6,44.8,38.4,33.5,97,68,38,30.13,30.02,1,0,4,0.00
2014-10-11,54.4,47.2,42.9,48.3,44.2,39.9,96,89,73,30.17,30.05,2,0,6,0.14
2014-10-12,63.2,46.4,32.1,47.3,37.8,30.3,98,76,37,30.31,30.17,4,0,13,0.01
2014-10-13,61.2,52.0,36.5,57.2,46.9,34.4,96,84,67,30.33,30.22,1,0,6,0.00
2014-10-14,76.8,67.5,59.2,65.2,61.1,57.2,97,81,54,30.22,30.07,4,1,13,0.00
2014-10-15,77.4,71.4,66.8,68.5,65.3,62.2,94,82,69,30.07,29.85,4,1,14,0.07
2014-10-16,70.1,65.6,55.0,67.6,59.6,52.7,97,82,60,29.72,29.63,4,1,12,0.46
2014-10-17,71.8,60.5,52.8,56.2,51.7,47.3,97,76,43,29.70,29.61,3,0,9,0.01
2014-10-18,68.4,57.7,50.5,55.3,49.8,43.4,95,76,55,29.67,29.51,2,0,12,0.00
2014-10-19,54.2,47.2,31.3,45.1,32.8,24.6,82,58,39,30.05,29.67,8,2,22,0.00
2014-10-20,58.6,44.1,29.1,40.5,33.3,26.0,94,69,42,30.10,29.93,2,0,7,0.00
2014-10-21,50.5,4.4,49.6,41.7,3.6,40.2,74,6,68,29.94,29.84,0,0,2,0.00
2014-10-22,51.7,24.0,48.3,48.3,22.6,46.7,95,43,85,29.99,29.79,10,2,22,0.27
2014-10-23,49.2,47.6,46.0,45.9,44.5,43.6,97,89,82,29.79,29.71,10,6,29,0.56
2014-10-24,54.8,49.9,42.8,46.5,44.4,40.2,93,82,67,29.84,29.76,6,1,17,0.03
2014-10-25,65.8,50.0,33.8,49.4,41.1,32.3,97,75,45,29.85,29.53,2,0,10,0.00
2014-10-26,55.3,49.8,41.3,45.6,40.8,37.3,94,72,51,29.79,29.50,7,0,17,0.03
2014-10-27,62.9,51.2,40.2,40.9,38.3,35.4,83,63,37,30.02,29.78,3,0,7,0.00
2014-10-28,73.3,54.8,37.8,51.1,43.5,34.8,94,69,38,30.03,29.85,2,0,7,0.00
2014-10-29,66.4,52.9,41.8,58.1,47.5,39.2,96,81,46,29.93,29.82,4,0,14,0.09
2014-10-30,55.3,47.2,38.2,48.4,39.2,34.6,98,77,47,30.01,29.91,3,0,11,0.00
2014-10-31,52.5,46.1,30.3,40.1,36.2,26.9,94,70,53,30.04,29.90,3,0,10,0.00
2014-11-1,46.4,42.4,38.2,39.7,35.9,31.8,89,78,58,29.91,29.81,9,4,24,0.10
2014-11-2,45.8,40.6,38.2,35.1,24.2,14.3,88,54,34,30.00,29.80,14,6,33,0.00
2014-11-3,60.1,44.5,27.5,31.5,23.0,14.0,83,47,18,30.10,29.98,4,0,19,0.00
2014-11-4,69.3,55.2,43.8,34.4,27.8,17.1,56,36,19,30.13,29.97,2,0,11,0.00
2014-11-5,62.1,53.3,43.3,44.2,34.7,25.5,66,50,28,30.12,29.95,2,0,11,0.00
2014-11-6,46.7,44.3,42.3,45.1,39.7,33.3,96,84,66,30.10,29.60,1,0,5,0.09
2014-11-7,49.4,42.7,36.9,41.6,31.3,22.1,95,65,49,29.89,29.58,6,2,17,0.03
2014-11-8,47.9,39.3,26.7,29.4,25.0,21.6,86,58,37,30.02,29.88,2,0,14,0.00
2014-11-9,57.5,44.8,31.5,35.4,31.1,26.6,83,60,37,30.01,29.86,2,0,10,0.00
2014-11-10,60.5,44.5,29.7,38.8,31.5,26.3,94,65,32,30.16,30.01,1,0,6,0.00
2014-11-11,62.0,49.3,35.3,52.1,44.3,32.1,97,83,69,30.13,29.90,3,0,11,0.00
2014-11-12,62.7,51.3,38.5,56.6,45.8,28.5,96,82,65,30.08,29.86,7,0,18,0.00
2014-11-13,45.8,37.8,25.8,32.7,26.2,21.5,90,65,43,30.12,29.98,3,0,11,0.07
2014-11-14,40.1,35.2,29.5,33.8,22.5,13.9,95,62,35,30.16,29.98,4,0,14,0.18
2014-11-15,39.5,29.4,21.4,23.4,16.1,11.0,87,60,31,30.36,30.16,4,0,15,0.00
2014-11-16,39.6,31.9,20.5,28.4,22.3,15.7,88,69,49,30.38,30.09,3,0,9,0.00
2014-11-17,42.6,38.9,35.3,41.5,36.8,28.0,97,93,67,30.09,29.47,1,0,5,0.69
2014-11-18,40.3,29.2,19.9,39.3,11.8,-0.6,96,50,28,30.05,29.55,4,1,17,0.00
2014-11-19,32.4,24.6,17.2,10.9,6.0,2.8,59,45,34,30.23,30.05,2,0,12,0.00
2014-11-20,44.5,35.4,27.0,21.5,14.3,7.6,63,43,29,29.99,29.79,2,0,13,0.00
2014-11-21,34.3,26.3,18.6,11.4,8.9,5.7,69,48,34,30.48,29.99,6,1,16,0.00
2014-11-22,41.9,32.1,18.8,17.9,12.5,8.6,70,47,26,30.47,30.15,2,0,11,0.00
2014-11-23,55.9,46.5,39.6,35.7,24.7,17.9,66,43,30,30.18,29.99,1,0,7,0.00
2014-11-24,69.1,61.3,46.7,60.4,54.9,36.1,96,80,67,29.99,29.49,9,3,20,0.32
2014-11-25,62.6,51.1,36.8,55.3,34.8,25.7,81,56,36,30.13,29.69,2,0,15,0.00
2014-11-26,41.6,35.6,31.5,31.1,29.7,26.2,96,80,59,30.21,29.82,4,0,13,0.01
2014-11-27,29.4,28.2,26.6,27.1,26.0,24.3,92,92,91,30.06,30.04,0,0,0,0.00
2014-11-28,36.8,24.3,13.6,31.4,19.3,9.7,95,82,64,30.26,30.03,3,0,10,0.00
2014-11-29,31.0,21.9,9.9,23.5,15.4,6.0,91,76,60,30.36,30.22,0,0,3,0.02
2014-11-30,46.0,39.5,35.3,34.8,32.9,31.3,88,78,62,30.16,30.05,2,0,7,0.12
2014-12-1,57.5,42.2,35.8,43.9,34.3,20.6,93,75,54,30.47,30.04,5,1,14,0.00
2014-12-2,36.6,32.6,27.6,31.7,22.1,15.5,92,66,53,30.67,30.32,5,1,17,0.12
2014-12-3,40.6,36.7,33.1,39.8,35.5,31.6,97,95,92,30.32,29.94,0,0,5,0.06
2014-12-4,42.8,34.0,22.5,25.8,20.8,17.3,81,59,41,30.53,30.27,3,0,7,0.00
2014-12-5,36.0,28.2,17.7,31.1,22.7,14.5,93,81,58,30.63,30.35,1,0,11,0.29
2014-12-6,40.6,36.5,32.9,39.8,35.3,31.4,97,95,92,30.35,30.11,7,1,16,0.74
2014-12-7,36.2,30.7,19.2,34.4,15.9,0.0,93,56,29,30.66,30.26,10,6,25,0.00
2014-12-8,26.3,21.5,13.5,20.7,11.0,-0.5,79,64,44,30.74,30.39,3,0,13,0.00
2014-12-9,36.8,32.5,26.0,34.7,29.9,19.8,95,90,77,30.39,29.66,10,4,24,0.63
2014-12-10,37.2,34.4,29.4,34.6,31.4,27.9,94,89,74,29.67,29.55,7,2,20,0.06
2014-12-11,34.4,30.8,27.2,29.5,24.2,20.7,94,77,67,29.85,29.62,1,0,6,0.08
2014-12-12,36.2,29.9,23.5,25.6,22.9,18.9,89,75,60,29.98,29.84,4,0,12,0.02
2014-12-13,41.2,31.7,25.1,29.4,25.0,21.8,92,77,52,29.98,29.87,5,1,16,0.00
2014-12-14,40.6,32.6,26.4,34.1,28.1,23.7,94,84,70,29.98,29.86,3,0,9,0.00
2014-12-15,42.1,31.9,24.1,32.9,26.5,21.7,95,81,63,30.13,29.96,5,1,14,0.00
2014-12-16,42.1,34.9,24.8,38.4,32.5,22.5,96,91,84,30.12,29.84,2,0,8,0.23
2014-12-17,47.6,41.8,39.5,45.3,37.8,29.1,97,86,66,29.85,29.76,2,0,12,0.02
2014-12-18,41.9,37.1,33.5,27.4,25.4,23.2,73,63,54,29.95,29.89,3,0,11,0.00
2014-12-19,35.8,32.0,26.0,26.0,21.5,18.3,76,65,54,30.19,29.94,4,1,12,0.00
2014-12-20,28.4,27.5,26.1,20.3,18.8,17.6,73,70,66,30.31,30.19,4,1,11,0.00
2014-12-21,31.5,29.2,27.0,26.9,24.7,20.3,87,83,73,30.35,30.28,3,0,7,0.00
2014-12-22,40.1,34.2,30.1,37.5,30.6,26.7,91,87,79,30.35,30.18,1,0,4,0.02
2014-12-23,42.1,40.5,38.0,41.3,39.2,35.9,97,95,92,30.20,30.06,1,0,5,0.13
2014-12-24,56.5,45.4,41.1,56.0,44.7,40.3,99,98,97,30.09,29.48,2,0,12,0.22
2014-12-25,56.9,46.2,39.1,56.3,31.6,27.8,99,57,46,30.07,29.48,4,1,17,0.01
2014-12-26,48.6,36.7,29.3,32.8,27.6,25.0,89,71,47,30.25,30.06,2,0,9,0.00
2014-12-27,52.5,38.1,29.8,35.9,30.9,25.8,90,77,51,30.25,30.01,2,0,4,0.00
2014-12-28,49.8,44.0,37.3,43.2,35.4,26.1,92,72,59,30.06,29.83,2,0,6,0.06
2014-12-29,39.6,32.8,26.4,26.6,21.2,14.4,84,63,42,30.26,30.05,4,0,12,0.00
2014-12-30,29.1,23.7,16.1,14.4,9.0,5.1,70,53,38,30.41,30.26,4,1,13,0.00
2014-12-31,30.6,22.3,14.1,13.1,7.4,-0.4,77,55,29,30.34,30.13,3,0,16,0.00
2015-1-1,33.1,26.3,14.0,15.2,8.6,4.3,75,48,32,30.14,29.93,3,0,13,0.00
2015-1-2,39.3,32.8,25.3,21.5,18.2,13.9,69,55,47,30.45,29.96,3,0,17,0.00